{"data":{"norad_id":54787,"intl_designator":"2022-175AF","name":"STARLINK-5441","alt_names":[],"object_type":"PAYLOAD","status":"ACTIVE","operator":null,"country":"US","launch_date":"2022-12-17","launch_site_code":"AFETR","launch_vehicle":null,"mission":null,"orbit_class":"UNKNOWN","rcs_meters":null,"size_class":null,"mass_kg":null,"dimensions":null,"purposes":["comms"],"wikipedia_slug":null,"has_3d_model":false,"image_url":null,"decayed_at":null,"tle_current":{"epoch":"2026-09-20T13:09:38.883744Z","epoch_age_seconds":85142,"freshness":"FRESH","line1":"1 54787U 22175AF  26263.54836671  .00000493  00000+0  25731-4 0  9994","line2":"2 54787  53.1607 237.6598 0001347  89.6205 270.4952 15.34388717209490","mean_motion":15.34388717,"eccentricity":0.0001347,"inclination_deg":53.1607,"raan_deg":237.6598,"arg_perigee_deg":89.6205,"mean_anomaly_deg":270.4952,"bstar":2.5731e-5,"rev_number":20949,"period_min":93.84844818303,"perigee_km":461.81531016878,"apogee_km":463.658241564,"semimajor_km":6840.8737758664,"source":"CELESTRAK","updated_at":"2026-09-21T09:00:33.125985Z"}}}